Date String (YYYY-MM-DD hh:mm:ss) UTC,Instrument flags,Ambient pressure (hPa),Sample flow (lpm),Bypass flow (lpm),Sample temperature (°C),Ambient temperature (°C),ASC tube jacket temperature (°C),LED temperature (°C),Box temperature (°C),Sample RH (%),Span deviation,Mass concentration (μg/m³),Mass concentration (μg/m³),Mass concentration (μg/m³)
DateTimeUTC,F1_M11,P_M11,Q1_M11,Q2_M11,T1_M11,T2_M11,T3_M11,T4_M11,T5_M11,U1_M11,ZSPAN_M11,X2_M11,X0_M11,X1_M11
2022-04-13 03:00:00,,0812.9,5.00,0.00,22.4,21.7,00.0,31.3,24.0,06.1,0000.0,0001.79,0009.11,0000.50
2022-04-13 03:01:00,,0813.2,5.00,0.00,22.4,21.3,00.0,31.3,23.9,06.1,0000.0,0001.78,0009.01,0000.49
2022-04-13 03:02:00,,0813.3,5.00,0.00,22.3,21.1,00.0,31.3,23.7,06.2,0000.0,0001.73,0008.93,0000.48
2022-04-13 03:03:00,,0813.2,5.00,0.00,22.2,20.8,00.0,31.3,23.6,06.2,0000.0,0001.70,0008.94,0000.48
2022-04-13 03:04:00,,0813.4,5.01,0.00,22.2,21.1,00.0,31.3,23.7,06.2,0000.0,0001.71,0008.74,0000.47
2022-04-13 03:05:00,,0813.6,5.01,0.00,22.3,22.0,00.0,31.3,24.0,06.2,0000.0,0001.69,0008.57,0000.47
2022-04-13 03:06:00,,0813.7,5.00,0.00,22.4,22.9,00.0,31.3,24.3,06.2,0000.0,0001.66,0008.01,0000.46
2022-04-13 03:07:00,,0814.1,5.01,0.00,22.5,23.2,00.0,31.4,24.5,06.1,0000.0,0001.56,0007.47,0000.46
2022-04-13 03:08:00,,0813.7,4.99,0.00,22.5,22.8,00.0,31.4,24.4,06.1,0000.0,0001.54,0005.90,0000.45
2022-04-13 03:09:00,,0814.0,5.00,0.00,22.5,22.3,00.0,31.4,24.2,06.2,0000.0,0001.62,0006.63,0000.46
2022-04-13 03:10:00,,0814.3,5.00,0.00,22.4,21.9,00.0,31.3,24.0,06.3,0000.0,0001.60,0007.06,0000.46
2022-04-13 03:11:00,,0814.2,5.00,0.00,22.3,21.6,00.0,31.3,23.8,06.5,0000.0,0001.67,0006.83,0000.46
2022-04-13 03:12:00,,0814.5,5.00,0.00,22.2,21.3,00.0,31.3,23.7,06.5,0000.0,0001.68,0006.99,0000.47
2022-04-13 03:13:00,,0814.6,5.00,0.00,22.1,21.0,00.0,31.3,23.6,06.6,0000.0,0001.67,0006.81,0000.47
2022-04-13 03:14:00,,0814.9,4.99,0.00,22.1,20.8,00.0,31.2,23.4,06.7,0000.0,0001.64,0006.34,0000.45
2022-04-13 03:15:00,,0814.7,5.01,0.00,22.0,20.9,00.0,31.2,23.5,06.7,0000.0,0001.63,0006.40,0000.45
2022-04-13 03:16:00,,0814.8,5.00,0.00,22.1,21.8,00.0,31.3,23.8,06.7,0000.0,0001.63,0006.70,0000.45
2022-04-13 03:17:00,,0814.8,5.00,0.00,22.3,22.7,00.0,31.3,24.1,06.6,0000.0,0001.64,0006.75,0000.45
2022-04-13 03:18:00,,0814.8,5.01,0.00,22.4,23.3,00.0,31.3,24.3,06.6,0000.0,0001.64,0006.53,0000.45
2022-04-13 03:19:00,,0814.9,5.00,0.00,22.4,22.9,00.0,31.3,24.2,06.3,0000.0,0001.59,0006.33,0000.44
2022-04-13 03:20:00,,0815.0,4.98,0.00,22.4,22.5,00.0,31.3,24.1,06.4,0000.0,0001.49,0005.34,0000.44
2022-04-13 03:21:00,,0815.0,5.00,0.00,22.3,22.1,00.0,31.3,24.0,06.5,0000.0,0001.42,0005.17,0000.44
2022-04-13 03:22:00,,0815.1,5.00,0.00,22.3,21.8,00.0,31.3,23.8,06.6,0000.0,0001.35,0005.09,0000.44
2022-04-13 03:23:00,,0815.2,5.00,0.00,22.2,21.5,00.0,31.3,23.7,06.7,0000.0,0001.35,0005.64,0000.43
2022-04-13 03:24:00,,0815.3,5.00,0.00,22.1,21.3,00.0,31.3,23.6,06.7,0000.0,0001.41,0005.63,0000.44
2022-04-13 03:25:00,,0815.4,5.01,0.00,22.0,21.1,00.0,31.2,23.4,06.7,0000.0,0001.40,0006.06,0000.44
2022-04-13 03:26:00,,0815.6,4.99,0.00,22.0,20.9,00.0,31.2,23.4,06.8,0000.0,0001.36,0005.83,0000.44
2022-04-13 03:27:00,,0816.0,4.99,0.00,21.9,20.8,00.0,31.2,23.3,06.9,0000.0,0001.32,0005.51,0000.43
2022-04-13 03:28:00,,0816.0,4.99,0.00,21.8,20.7,00.0,31.1,23.3,06.8,0000.0,0001.29,0005.42,0000.43
2022-04-13 03:29:00,,0815.8,5.00,0.00,21.8,20.7,00.0,31.1,23.3,06.7,0000.0,0001.25,0005.55,0000.43
2022-04-13 03:30:00,,0815.7,5.01,0.00,21.9,21.5,00.0,31.1,23.5,06.8,0000.0,0001.32,0005.91,0000.43
2022-04-13 03:31:00,,0815.8,5.00,0.00,22.0,22.5,00.0,31.1,23.9,06.8,0000.0,0001.28,0005.82,0000.41
2022-04-13 03:32:00,,0815.8,5.01,0.00,22.2,23.3,00.0,31.2,24.2,06.7,0000.0,0001.32,0005.32,0000.41
2022-04-13 03:33:00,,0815.8,4.98,0.00,22.3,23.3,00.0,31.2,24.2,06.6,0000.0,0001.40,0005.40,0000.42
2022-04-13 03:34:00,,0815.8,5.00,0.00,22.3,22.9,00.0,31.2,24.2,06.5,0000.0,0001.37,0004.61,0000.42
2022-04-13 03:35:00,,0815.8,5.02,0.00,22.3,22.5,00.0,31.2,24.0,06.6,0000.0,0001.35,0004.28,0000.42
2022-04-13 03:36:00,,0815.9,4.99,0.00,22.2,22.1,00.0,31.2,23.9,06.7,0000.0,0001.34,0003.89,0000.43
2022-04-13 03:37:00,,0816.0,5.01,0.00,22.2,21.7,00.0,31.2,23.8,06.7,0000.0,0001.40,0003.94,0000.44
2022-04-13 03:38:00,,0816.0,5.00,0.00,22.1,21.5,00.0,31.2,23.7,06.9,0000.0,0001.43,0004.06,0000.43
2022-04-13 03:39:00,,0815.9,5.00,0.00,22.0,21.3,00.0,31.1,23.6,06.7,0000.0,0001.46,0004.18,0000.42
2022-04-13 03:40:00,,0816.0,4.99,0.00,22.0,21.2,00.0,31.1,23.6,06.7,0000.0,0001.51,0004.17,0000.41
2022-04-13 03:41:00,,0815.9,4.99,0.00,22.0,21.0,00.0,31.1,23.5,06.8,0000.0,0001.51,0003.86,0000.42
2022-04-13 03:42:00,,0816.1,5.01,0.00,21.9,20.9,00.0,31.1,23.4,06.7,0000.0,0001.54,0004.20,0000.42
2022-04-13 03:43:00,,0816.0,5.00,0.00,21.9,20.9,00.0,31.0,23.4,06.6,0000.0,0001.54,0004.17,0000.42
2022-04-13 03:44:00,,0816.2,5.00,0.00,21.8,20.8,00.0,31.0,23.4,06.5,0000.0,0001.49,0003.98,0000.40
2022-04-13 03:45:00,,0816.3,5.00,0.00,21.8,20.8,00.0,31.0,23.3,06.5,0000.0,0001.48,0004.04,0000.40
2022-04-13 03:46:00,,0816.1,5.00,0.00,21.7,20.7,00.0,31.0,23.3,06.5,0000.0,0001.47,0003.97,0000.41
2022-04-13 03:47:00,,0816.2,5.00,0.00,21.7,20.7,00.0,30.9,23.2,06.4,0000.0,0001.44,0004.78,0000.41
2022-04-13 03:48:00,,0816.4,5.00,0.00,21.7,20.9,00.0,30.9,23.3,06.4,0000.0,0001.37,0004.89,0000.41
2022-04-13 03:49:00,,0816.2,4.99,0.00,21.8,21.8,00.0,31.0,23.6,06.5,0000.0,0001.35,0004.78,0000.41
2022-04-13 03:50:00,,0816.1,5.01,0.00,22.0,22.7,00.0,31.0,23.9,06.3,0000.0,0001.35,0004.74,0000.41
2022-04-13 03:51:00,,0816.2,5.00,0.00,22.1,23.3,00.0,31.0,24.1,06.3,0000.0,0001.36,0004.92,0000.41
2022-04-13 03:52:00,,0816.1,4.99,0.00,22.2,23.1,00.0,31.0,24.1,06.3,0000.0,0001.34,0005.30,0000.41
2022-04-13 03:53:00,,0816.2,4.99,0.00,22.2,22.6,00.0,31.1,24.0,06.2,0000.0,0001.37,0005.18,0000.41
2022-04-13 03:54:00,,0816.2,5.01,0.00,22.1,22.2,00.0,31.1,23.8,06.1,0000.0,0001.37,0005.12,0000.42
2022-04-13 03:55:00,,0816.3,5.00,0.00,22.1,21.9,00.0,31.1,23.8,06.1,0000.0,0001.32,0004.93,0000.41
2022-04-13 03:56:00,,0816.3,5.00,0.00,22.0,21.6,00.0,31.0,23.7,06.2,0000.0,0001.32,0004.82,0000.41
2022-04-13 03:57:00,,0816.3,4.99,0.00,22.0,21.4,00.0,31.0,23.6,06.2,0000.0,0001.37,0005.16,0000.41
2022-04-13 03:58:00,,0816.3,5.00,0.00,22.0,21.2,00.0,31.0,23.5,06.3,0000.0,0001.39,0005.28,0000.41
2022-04-13 03:59:00,,0816.4,5.00,0.00,21.9,21.1,00.0,31.0,23.5,06.3,0000.0,0001.41,0005.53,0000.41
